This is the latest recevied weather packets stored in our database for station/object VE2JJ-13. If no packets are shown the sender has not sent any weather packets the latest 1 day(s).
| Time | Temp. | Humidity | Pressure | Rain* | Wind** | Luminosity | Snow |
|---|---|---|---|---|---|---|---|
| 1836274848 | 9.44° C | 62% | 1016.6 hPa | 0 mm | 2.24 m/s, 336° | - | - |
| 1836274519 | 9.44° C | 62% | 1016.6 hPa | 0 mm | 0.89 m/s, 3° | - | - |
| 1836274218 | 9.44° C | 62% | 1016.4 hPa | 0 mm | 0.89 m/s, 11° | - | - |
| 1836273889 | 9.44° C | 62% | 1016.4 hPa | 0 mm | 1.34 m/s, 303° | - | - |
| 1778036490 | 11.67° C | 77% | 999.6 hPa | 0 mm | 8.05 m/s, 199° | - | - |
| 1778036161 | 12.22° C | 75% | 999.6 hPa | 0 mm | 8.05 m/s, 250° | - | - |
| 1778035859 | 12.22° C | 75% | 999.6 hPa | 0 mm | 11.62 m/s, 234° | - | - |
| 1778035558 | 12.78° C | 73% | 999.6 hPa | 0 mm | 8.05 m/s, 158° | - | - |
| 1778035258 | 12.78° C | 73% | 999.7 hPa | 0 mm | 5.81 m/s, 173° | - | - |
| 1778034932 | 12.78° C | 72% | 999.7 hPa | 0 mm | 6.26 m/s, 233° | - | - |
| 1778034635 | 12.78° C | 74% | 999.7 hPa | 0 mm | 5.81 m/s, 216° | - | - |
| 1778034331 | 12.78° C | 75% | 999.7 hPa | 0 mm | 10.28 m/s, 225° | - | - |
| 1778034001 | 12.78° C | 74% | 999.7 hPa | 0 mm | 6.26 m/s, 238° | - | - |
| 1778033698 | 13.33° C | 73% | 999.6 hPa | 0 mm | 6.71 m/s, 64° | - | - |
| 1778033368 | 13.33° C | 72% | 999.6 hPa | 0 mm | 6.71 m/s, 184° | - | - |
| 1778033043 | 13.33° C | 72% | 999.4 hPa | 0 mm | 5.81 m/s, 197° | - | - |
| 1778032740 | 13.33° C | 71% | 999.4 hPa | 0 mm | 6.71 m/s, 178° | - | - |
| 1778032409 | 13.33° C | 70% | 999.4 hPa | 0 mm | 7.15 m/s, 209° | - | - |
| 1778032081 | 13.33° C | 69% | 999.1 hPa | 0 mm | 9.39 m/s, 267° | - | - |
| 1778031779 | 13.33° C | 69% | 999.1 hPa | 0 mm | 8.05 m/s, 311° | - | - |
| 1778031479 | 13.33° C | 70% | 999 hPa | 0 mm | 7.6 m/s, 225° | - | - |
| 1778031178 | 13.89° C | 71% | 999 hPa | 0 mm | 7.6 m/s, 203° | - | - |
| 1778030880 | 13.89° C | 71% | 998.9 hPa | 0 mm | 11.18 m/s, 261° | - | - |
| 1778030552 | 13.89° C | 70% | 998.9 hPa | 0 mm | 6.71 m/s, 238° | - | - |
| 1778030248 | 14.44° C | 69% | 998.9 hPa | 0 mm | 4.47 m/s, 212° | - | - |
* Rain latest hour (hover to see other rain measurements)
** Current wind speed in m/s (hover to see current wind gust speed)